ARIANE 5 R/B (43825 NORAD) Tracking and Keplerian Element Data

This shows tracking and keplerian element data for the satellite.

Feedback or suggestion? Click here.




ElementValue
Catalog43825
NameARIANE 5 R/B
Epoch Orbit65
Epoch Day2.25030343
Epoch Year2019
RAAN196.0081
Inclination3.5268
Eccentricity0.726802
Argument of Perigee201.5971
Mean Anonmoly95.6409
Mean Motion2.30009606
Decay Rate1.031E-05
L11 43825U 18100C 19002.25030343 .00001031 00000-0 24648-3 0 9996
L22 43825 3.5268 196.0081 7268020 201.5971 95.6409 2.30009606 653

Live tracking and technical data element details for ARIANE 5 R/B (NORAD 43825). ARIANE 5 R/B can be tracked NOW for your location showing map with azimuth and elevation plus other details from your city location.

Track the satellite on the map from your city or location and see movement details for azimuth, elevation, latitude, longitude, range, height, and movement on the map or in text.







IsCatalogInMostPopularTable: catalog: 43825, numindb: 20
Update: records affected: 1



GetName: 43825 ARIANE 5 R/B

Hit Count: updated at: Wed, 23 Jan 2019 02:39:52 GMT